GW1967 Weather Reports


Display with metric or nautical units.
time (UTC)temp
F
wind
direction
speed
MPH
gust
MPH
rain 1hr
in
rain 24hr
in
rain mn
in
humidity
%
barometer
mb
20260510085243 51 151 13.0 19.0 0.00 0.02 0.02 95 1010.0
20260510084739 51 154 10.0 16.0 0.00 0.02 0.02 95 1009.9
20260510084237 51 154 15.0 17.0 0.00 0.02 0.02 95 1009.6
20260510083733 51 154 13.0 16.0 0.00 0.02 0.02 95 1009.6
20260510083231 51 141 11.0 16.0 0.00 0.02 0.02 95 1009.6
20260510082726 51 150 13.0 14.0 0.00 0.02 0.02 95 1009.7
20260510082223 51 138 8.0 11.0 0.00 0.02 0.02 95 1010.0
20260510081722 51 145 7.0 15.0 0.00 0.02 0.02 95 1009.9
20260510081218 51 139 11.0 12.0 0.00 0.02 0.02 95 1009.7
20260510080713 52 143 8.0 17.0 0.00 0.02 0.02 95 1010.0
20260510080209 51 140 13.0 17.0 0.00 0.02 0.02 95 1009.6
20260510075706 51 137 13.0 17.0 0.02 0.02 0.02 95 1009.7
20260510075204 51 139 13.0 15.0 0.02 0.02 0.02 95 1009.9
20260510074701 51 136 9.0 14.0 0.00 0.02 0.02 95 1010.1
20260510074156 51 142 11.0 16.0 0.00 0.02 0.02 95 1010.0
20260510073654 51 139 11.0 18.0 0.00 0.02 0.02 95 1010.0
20260510073149 51 144 9.0 15.0 0.00 0.02 0.02 95 1010.1
20260510072645 51 133 9.0 14.0 0.00 0.02 0.02 95 1010.0
20260510072142 52 136 11.0 15.0 0.02 0.02 0.02 94 1010.5
20260510071638 51 150 10.0 15.0 0.00 0.02 0.02 94 1010.6
20260510071136 51 148 10.0 13.0 0.00 0.02 0.02 94 1010.2
20260510070633 51 137 12.0 15.0 0.00 0.02 0.02 94 1010.2
20260510070131 51 140 8.0 14.0 0.02 0.02 0.02 94 1010.2
20260510065626 51 150 10.0 15.0 0.02 0.01 0.01 93 1010.4
20260510065122 52 142 10.0 15.0 0.05 0.01 0.01 92 1010.4
20260510064619 52 154 11.0 12.0 0.02 0.00 0.00 91 1010.6
20260510064116 52 149 12.0 15.0 0.02 0.00 0.00 90 1010.6
20260510063612 52 156 14.0 16.0 0.00 0.00 0.00 89 1010.5
20260510063109 52 160 11.0 18.0 0.00 0.00 0.00 89 1010.5
20260510062605 52 160 11.0 14.0 0.00 0.00 0.00 89 1010.6
20260510062100 53 154 12.0 18.0 0.00 0.00 0.00 88 1010.4
20260510061552 53 155 14.0 16.0 0.00 0.00 0.00 88 1010.4
20260510061049 52 157 12.0 17.0 0.00 0.00 0.00 89 1010.3
20260510060545 52 152 11.0 14.0 0.00 0.00 0.00 89 1010.3
20260510060041 52 141 8.0 11.0 0.00 0.00 0.00 89 1010.3
20260510055537 52 151 8.0 11.0 0.00 0.00 0.00 89 1010.0
20260510055036 52 141 7.0 12.0 0.00 0.00 0.00 89 1010.1
20260510054531 52 145 8.0 12.0 0.00 0.00 0.00 89 1010.3
20260510054026 52 147 8.0 12.0 0.00 0.00 0.00 89 1010.2
20260510053521 52 151 9.0 13.0 0.00 0.00 0.00 90 1010.1
20260510053018 52 147 9.0 17.0 0.00 0.00 0.00 90 1010.2
20260510052514 52 144 7.0 13.0 0.00 0.00 0.00 90 1010.3
20260510052011 52 157 14.0 15.0 0.00 0.00 0.00 90 1010.5
20260510051506 52 159 11.0 16.0 0.00 0.00 0.00 90 1010.4
20260510051003 52 152 8.0 14.0 0.00 0.00 0.00 90 1010.3
20260510050500 52 168 13.0 17.0 0.00 0.00 0.00 90 1010.3
20260510045957 52 156 12.0 16.0 0.00 0.00 0.00 90 1010.1
20260510045454 52 155 15.0 15.0 0.00 0.00 0.00 90 1010.4
20260510044950 52 149 10.0 19.0 0.00 0.00 0.00 90 1010.3
20260510044447 52 149 10.0 15.0 0.00 0.00 0.00 91 1010.2
20260510043944 52 166 13.0 18.0 0.00 0.00 0.00 90 1010.4
20260510043440 52 156 16.0 18.0 0.00 0.00 0.00 90 1010.3
20260510042938 52 152 13.0 20.0 0.00 0.00 0.00 90 1010.0
20260510042434 52 150 14.0 15.0 0.00 0.00 0.00 90 1010.1
20260510041930 52 157 15.0 18.0 0.00 0.00 0.00 89 1010.3
20260510041427 52 161 13.0 17.0 0.00 0.00 0.00 88 1010.1
20260510040925 51 155 12.0 16.0 0.00 0.00 0.00 88 1010.0
20260510040422 51 161 12.0 17.0 0.00 0.00 0.00 88 1009.8
20260510035917 51 174 13.0 14.0 0.00 0.01 0.01 89 1009.9
20260510035414 51 153 14.0 16.0 0.00 0.01 0.01 88 1009.8
20260510034914 51 168 11.0 14.0 0.00 0.01 0.01 89 1009.8
20260510034413 51 161 11.0 17.0 0.00 0.01 0.01 89 1009.8
20260510033908 51 155 13.0 14.0 0.00 0.01 0.01 90 1010.0
20260510033405 51 153 11.0 15.0 0.00 0.01 0.01 89 1009.9
20260510032902 51 158 11.0 15.0 0.00 0.01 0.01 90 1010.1
20260510032358 51 169 10.0 14.0 0.00 0.01 0.01 90 1010.1
20260510031854 51 162 12.0 15.0 0.00 0.01 0.01 90 1010.3
20260510031349 51 164 14.0 15.0 0.00 0.01 0.01 91 1010.3
20260510030849 51 161 11.0 17.0 0.00 0.01 0.01 91 1010.2
20260510030346 51 166 13.0 15.0 0.00 0.01 0.01 91 1010.3
20260510025843 51 171 11.0 16.0 0.00 0.01 0.01 91 1010.1
20260510025341 51 162 13.0 15.0 0.00 0.01 0.01 91 1010.1
20260510024837 51 170 12.0 14.0 0.00 0.01 0.01 91 1010.3
20260510024334 51 158 9.0 13.0 0.00 0.01 0.01 91 1010.4
20260510023830 51 178 8.0 9.0 0.00 0.01 0.01 91 1010.4
20260510023327 51 167 7.0 9.0 0.00 0.01 0.01 91 1010.4
20260510022824 51 157 8.0 13.0 0.00 0.01 0.01 92 1010.3
20260510022323 51 164 7.0 9.0 0.00 0.01 0.01 93 1010.3
20260510021823 50 159 9.0 11.0 0.00 0.01 0.01 92 1010.5
20260510021321 50 164 8.0 9.0 0.00 0.01 0.01 93 1010.5
20260510020817 50 182 7.0 7.0 0.00 0.01 0.01 93 1010.4
20260510020312 50 168 10.0 11.0 0.00 0.01 0.01 93 1010.4
20260510015808 50 179 9.0 11.0 0.00 0.01 0.01 93 1010.4
20260510015306 50 155 11.0 11.0 0.00 0.01 0.01 94 1010.2
20260510014759 50 165 7.0 10.0 0.00 0.01 0.01 94 1010.6
20260510014256 50 191 5.0 8.0 0.00 0.01 0.01 94 1010.6
20260510013752 50 172 7.0 9.0 0.00 0.01 0.01 94 1010.6
20260510013248 50 167 5.0 9.0 0.00 0.01 0.01 94 1010.5
20260510012743 50 164 5.0 9.0 0.00 0.01 0.01 94 1010.7
20260510012238 50 160 9.0 11.0 0.00 0.01 0.01 94 1010.6
20260510011737 50 180 5.0 8.0 0.00 0.01 0.01 94 1010.7
20260510011233 50 170 7.0 8.0 0.00 0.01 0.01 94 1010.6
20260510010731 50 159 7.0 8.0 0.00 0.01 0.01 95 1010.6
20260510010227 50 168 5.0 9.0 0.00 0.01 0.01 95 1010.8
20260510005724 50 150 8.0 10.0 0.00 0.01 0.01 95 1010.7
20260510005220 50 141 4.0 6.0 0.00 0.01 0.01 95 1010.7
20260510004718 50 157 8.0 9.0 0.00 0.01 0.01 95 1011.0
20260510004216 50 153 7.0 8.0 0.00 0.01 0.01 95 1010.8
20260510003714 50 167 5.0 5.0 0.00 0.01 0.01 95 1010.8
20260510003209 50 174 3.0 7.0 0.00 0.01 0.01 94 1010.8
20260510002708 50 167 3.0 5.0 0.00 0.01 0.01 94 1011.1
20260510002206 50 157 3.0 4.0 0.00 0.01 0.01 95 1010.7
20260510001703 50 162 1.0 3.0 0.00 0.01 0.01 95 1010.8
20260510001201 50 194 2.0 3.0 0.00 0.01 0.01 94 1010.8
20260510000656 50 186 1.0 3.0 0.00 0.01 0.01 94 1010.8
20260510000154 50 185 2.0 2.0 0.00 0.01 0.01 94 1010.8
20260509235650 50 191 3.0 3.0 0.00 0.01 0.01 94 1010.8
20260509235147 50 177 2.0 3.0 0.00 0.01 0.01 93 1010.7
20260509234643 50 183 3.0 3.0 0.00 0.01 0.01 93 1010.6
20260509234140 50 181 2.0 3.0 0.00 0.01 0.01 93 1010.6
20260509233638 50 171 4.0 4.0 0.00 0.01 0.01 93 1010.7
20260509233135 50 153 5.0 7.0 0.00 0.01 0.01 93 1010.7
20260509232631 50 163 6.0 7.0 0.00 0.01 0.01 93 1010.8
20260509232128 50 171 3.0 5.0 0.00 0.01 0.01 93 1010.7
20260509231625 50 159 1.0 3.0 0.00 0.01 0.01 93 1010.8
20260509231123 50 212 3.0 5.0 0.00 0.01 0.01 94 1011.0
20260509230619 50 184 4.0 5.0 0.00 0.01 0.01 94 1010.6
20260509230117 50 166 3.0 5.0 0.00 0.01 0.01 94 1010.6
20260509225612 50 155 3.0 4.0 0.00 0.01 0.01 94 1010.7
20260509225108 50 148 6.0 6.0 0.00 0.01 0.01 94 1010.7
20260509224603 50 152 7.0 8.0 0.00 0.01 0.01 95 1010.7
20260509224101 50 149 4.0 9.0 0.00 0.01 0.01 95 1010.7
20260509223557 50 136 6.0 9.0 0.00 0.01 0.01 95 1010.8
20260509223055 50 157 5.0 6.0 0.00 0.01 0.01 95 1010.8
20260509222551 50 160 8.0 10.0 0.00 0.01 0.01 95 1010.8
20260509222047 49 144 6.0 10.0 0.00 0.01 0.01 95 1011.0
20260509221543 49 140 7.0 11.0 0.00 0.01 0.01 95 1011.1
20260509221039 50 147 6.0 13.0 0.00 0.01 0.01 95 1010.9
20260509220535 50 141 7.0 13.0 0.00 0.01 0.01 95 1011.3
20260509220031 50 138 11.0 15.0 0.00 0.01 0.01 94 1011.1
20260509215527 50 158 10.0 13.0 0.00 0.01 0.01 94 1011.0
20260509215024 50 139 9.0 14.0 0.00 0.01 0.01 95 1011.2
20260509214521 50 159 10.0 11.0 0.00 0.01 0.01 94 1011.2
20260509214018 50 161 8.0 10.0 0.00 0.01 0.01 95 1011.5
20260509213514 50 150 7.0 10.0 0.00 0.01 0.01 95 1011.5
20260509213011 50 166 6.0 8.0 0.00 0.01 0.01 94 1011.3
20260509212508 50 150 9.0 14.0 0.00 0.01 0.01 94 1011.3
20260509212005 50 154 9.0 14.0 0.00 0.01 0.01 94 1011.5
20260509211500 50 157 10.0 15.0 0.00 0.01 0.01 94 1011.4
20260509210957 50 161 9.0 13.0 0.00 0.01 0.01 93 1011.5
20260509210454 50 154 13.0 14.0 0.00 0.01 0.01 93 1011.6
20260509205950 50 160 11.0 13.0 0.00 0.01 0.01 92 1011.6
20260509205444 50 178 8.0 14.0 0.00 0.01 0.01 92 1011.6
20260509204941 50 181 7.0 9.0 0.00 0.01 0.01 92 1011.7
20260509204437 50 180 5.0 10.0 0.00 0.01 0.01 93 1011.5
20260509203934 50 175 4.0 9.0 0.00 0.01 0.01 92 1011.5
20260509203429 49 179 10.0 11.0 0.00 0.01 0.01 93 1011.6
20260509202927 49 169 7.0 10.0 0.00 0.01 0.01 93 1011.6
20260509202423 49 192 7.0 11.0 0.00 0.01 0.01 93 1011.9
20260509201918 49 183 6.0 9.0 0.00 0.01 0.01 93 1011.9
20260509201413 49 186 7.0 11.0 0.00 0.01 0.01 93 1011.7
20260509200911 49 180 8.0 11.0 0.00 0.01 0.01 93 1011.8
20260509200411 49 189 5.0 9.0 0.00 0.01 0.01 94 1011.7
20260509195908 49 187 6.0 13.0 0.00 0.01 0.01 94 1011.8
20260509195403 48 181 11.0 13.0 0.00 0.01 0.01 94 1011.9
20260509194903 48 179 10.0 12.0 0.00 0.01 0.01 94 1011.9
20260509194359 48 180 6.0 11.0 0.00 0.01 0.01 94 1011.9
20260509193855 48 187 8.0 10.0 0.00 0.01 0.01 94 1012.1
20260509193350 48 185 9.0 10.0 0.00 0.01 0.01 94 1012.2
20260509192846 48 199 7.0 9.0 0.00 0.01 0.01 94 1012.3
20260509192342 48 179 6.0 8.0 0.00 0.01 0.01 94 1012.4
20260509191838 48 185 5.0 6.0 0.00 0.01 0.01 95 1012.2
20260509191333 48 167 5.0 6.0 0.00 0.01 0.01 95 1012.5
20260509190830 48 172 4.0 5.0 0.00 0.01 0.01 95 1012.3
20260509190327 48 176 4.0 7.0 0.00 0.01 0.01 94 1012.4
20260509185824 48 191 3.0 6.0 0.00 0.01 0.01 94 1012.6
20260509185321 48 183 5.0 7.0 0.02 0.01 0.01 94 1012.5
20260509184818 48 179 7.0 9.0 0.02 0.01 0.01 93 1012.5
20260509184315 49 177 6.0 7.0 0.02 0.01 0.01 93 1012.5
20260509183812 49 171 8.0 9.0 0.02 0.01 0.01 92 1012.7
20260509183307 48 180 5.0 11.0 0.00 0.00 0.00 91 1012.7
20260509182803 48 166 8.0 11.0 0.02 0.00 0.00 90 1012.7
20260509182300 48 178 7.0 10.0 0.00 0.00 0.00 90 1012.8
20260509181757 49 167 4.0 9.0 0.00 0.00 0.00 90 1012.6
20260509181255 49 177 6.0 7.0 0.00 0.00 0.00 89 1012.6
20260509180752 49 177 7.0 8.0 0.00 0.00 0.00 88 1012.7
20260509180248 49 193 9.0 11.0 0.00 0.00 0.00 87 1012.7
20260509175744 49 187 7.0 12.0 0.00 0.00 0.00 85 1013.0
20260509175241 49 175 8.0 10.0 0.00 0.00 0.00 83 1012.9
20260509174737 50 175 9.0 11.0 0.00 0.00 0.00 83 1013.0
20260509174232 49 179 7.0 10.0 0.00 0.00 0.00 83 1013.1
20260509173729 49 167 9.0 10.0 0.00 0.00 0.00 83 1012.9
20260509173225 49 165 10.0 12.0 0.00 0.00 0.00 83 1013.1
20260509172721 49 182 8.0 11.0 0.00 0.00 0.00 82 1013.2
20260509172217 49 163 5.0 9.0 0.00 0.00 0.00 82 1013.3
20260509171713 49 172 11.0 11.0 0.00 0.00 0.00 81 1013.4
20260509171210 49 182 9.0 13.0 0.00 0.00 0.00 81 1013.2
20260509170706 49 148 8.0 11.0 0.00 0.00 0.00 81 1013.4
20260509170202 49 157 9.0 11.0 0.00 0.00 0.00 81 1013.5
20260509165701 49 153 8.0 12.0 0.00 0.00 0.00 82 1013.6
20260509165156 49 156 8.0 14.0 0.00 0.00 0.00 81 1013.5
20260509164652 48 149 11.0 12.0 0.00 0.00 0.00 81 1013.6
20260509164148 49 153 12.0 15.0 0.00 0.00 0.00 79 1013.6
20260509163646 49 156 15.0 16.0 0.00 0.00 0.00 78 1013.6
20260509163142 49 168 8.0 14.0 0.00 0.00 0.00 77 1013.9
20260509162639 50 162 11.0 15.0 0.00 0.00 0.00 76 1013.7
20260509162135 50 164 11.0 19.0 0.00 0.00 0.00 72 1013.7
20260509161631 51 165 12.0 15.0 0.00 0.00 0.00 73 1013.8
20260509161126 51 165 8.0 15.0 0.00 0.00 0.00 74 1013.7
20260509160622 51 192 9.0 16.0 0.00 0.00 0.00 72 1013.8
20260509160118 51 156 18.0 21.0 0.00 0.00 0.00 69 1013.8
20260509155614 52 162 17.0 23.0 0.00 0.00 0.00 66 1013.8
20260509155111 53 178 14.0 21.0 0.00 0.00 0.00 64 1013.8
20260509154606 54 157 11.0 15.0 0.00 0.00 0.00 61 1013.8
20260509154104 54 156 15.0 16.0 0.00 0.00 0.00 59 1013.7
20260509153601 54 161 15.0 17.0 0.00 0.00 0.00 60 1013.7
20260509153058 55 180 14.0 18.0 0.00 0.00 0.00 57 1014.0
20260509152554 55 168 13.0 16.0 0.00 0.00 0.00 55 1014.1
20260509152051 55 146 13.0 16.0 0.00 0.00 0.00 54 1013.9
20260509151547 55 165 9.0 14.0 0.00 0.00 0.00 54 1013.8
20260509151045 54 157 15.0 17.0 0.00 0.00 0.00 49 1013.9
20260509150543 54 182 9.0 11.0 0.00 0.00 0.00 53 1013.9
20260509150041 54 169 11.0 13.0 0.00 0.00 0.00 52 1013.9
20260509145536 55 174 9.0 13.0 0.00 0.00 0.00 55 1013.9
20260509145031 54 166 13.0 14.0 0.00 0.00 0.00 52 1014.1
20260509144528 55 187 12.0 15.0 0.00 0.00 0.00 51 1014.0
20260509144026 55 160 10.0 13.0 0.00 0.00 0.00 54 1014.0
20260509143523 55 191 9.0 11.0 0.00 0.00 0.00 50 1014.1
20260509143021 55 169 14.0 15.0 0.00 0.00 0.00 51 1014.0
20260509142515 55 163 14.0 15.0 0.00 0.00 0.00 52 1014.1
20260509142011 55 196 8.0 12.0 0.00 0.00 0.00 57 1013.9
20260509141508 54 196 9.0 12.0 0.00 0.00 0.00 56 1013.9
20260509141005 54 186 7.0 12.0 0.00 0.00 0.00 55 1014.0
20260509140501 54 159 5.0 11.0 0.00 0.00 0.00 54 1014.1
20260509140000 53 183 7.0 10.0 0.00 0.00 0.00 57 1014.1
20260509135457 53 183 7.0 10.0 0.00 0.00 0.00 57 1014.1
20260509134954 53 183 7.0 10.0 0.00 0.00 0.00 57 1014.0
20260509134451 53 183 7.0 10.0 0.00 0.00 0.00 57 1014.2
20260509133949 53 183 7.0 10.0 0.00 0.00 0.00 57 1014.0
20260509133445 53 183 7.0 10.0 0.00 0.00 0.00 57 1014.1
20260509132943 53 183 7.0 10.0 0.00 0.00 0.00 57 1014.3
20260509132441 53 183 7.0 10.0 0.00 0.00 0.00 57 1014.3
20260509131938 53 183 7.0 10.0 0.00 0.00 0.00 57 1014.0
20260509131435 48 151 12.0 13.0 0.00 0.00 0.00 67 1014.0
20260509130932 48 151 12.0 13.0 0.00 0.00 0.00 67 1014.3
20260509130427 48 151 12.0 13.0 0.00 0.00 0.00 67 1014.4
20260509125924 48 151 12.0 13.0 0.00 0.00 0.00 67 1014.5
20260509125421 48 151 12.0 13.0 0.00 0.00 0.00 67 1014.5
20260509124917 48 151 12.0 13.0 0.00 0.00 0.00 67 1014.5
20260509124414 48 151 12.0 13.0 0.00 0.00 0.00 67 1014.6
20260509123912 48 151 12.0 13.0 0.00 0.00 0.00 67 1014.4
20260509123409 0 0.0 0.0 0.00 0.00 0.00 1014.7
20260509122904 0 0.0 0.0 0.00 0.00 0.00 1014.5
20260509122401 0 0.0 0.0 0.00 0.00 0.00 1014.8
20260509121858 0 0.0 0.0 0.00 0.00 0.00 1015.0
20260509121355 0 0.0 0.0 0.00 0.00 0.00 1014.9
20260509120854 0 0.0 0.0 0.00 0.00 0.00 1014.9
20260509120351 41 172 7.0 11.0 0.00 0.00 0.00 77 1015.0
20260509115849 41 172 7.0 11.0 0.00 0.00 0.00 77 1014.8
20260509115346 41 172 7.0 11.0 0.00 0.00 0.00 77 1015.1
20260509114843 41 172 7.0 11.0 0.00 0.00 0.00 77 1015.0
20260509114342 41 172 7.0 11.0 0.00 0.00 0.00 77 1014.9
20260509113841 41 172 7.0 11.0 0.00 0.00 0.00 77 1015.0
20260509113337 41 172 7.0 11.0 0.00 0.00 0.00 77 1015.0
20260509112834 41 172 7.0 11.0 0.00 0.00 0.00 77 1015.1
20260509112331 41 172 7.0 11.0 0.00 0.00 0.00 77 1014.9
20260509111828 41 172 7.0 11.0 0.00 0.00 0.00 77 1014.8
20260509111325 41 172 7.0 11.0 0.00 0.00 0.00 77 1014.9
20260509110823 41 172 7.0 11.0 0.00 0.00 0.00 77 1014.9
20260509110319 40 178 8.0 11.0 0.00 0.00 0.00 77 1014.6
20260509105817 40 178 8.0 11.0 0.00 0.00 0.00 77 1014.8
20260509105315 40 178 8.0 11.0 0.00 0.00 0.00 77 1014.6
20260509104811 40 178 9.0 11.0 0.00 0.00 0.00 77 1014.8
20260509104308 40 180 7.0 11.0 0.00 0.00 0.00 76 1014.7
20260509103806 41 163 3.0 9.0 0.00 0.00 0.00 76 1014.5
20260509103303 40 164 7.0 9.0 0.00 0.00 0.00 76 1014.6
20260509102802 39 156 8.0 8.0 0.00 0.00 0.00 78 1014.5
20260509102258 39 156 8.0 8.0 0.00 0.00 0.00 78 1014.5
20260509101755 36 175 4.0 4.0 0.00 0.00 0.00 84 1014.5
20260509101251 36 175 4.0 4.0 0.00 0.00 0.00 84 1014.5
20260509100748 36 175 4.0 4.0 0.00 0.00 0.00 84 1014.4
20260509100246 36 175 4.0 4.0 0.00 0.00 0.00 84 1014.6
20260509095742 35 191 3.0 4.0 0.00 0.00 0.00 84 1014.6
20260509095239 35 198 3.0 4.0 0.00 0.00 0.00 85 1014.5
20260509094737 35 203 3.0 5.0 0.00 0.00 0.00 85 1014.5
20260509094233 35 203 3.0 5.0 0.00 0.00 0.00 85 1014.4
20260509093731 34 205 4.0 5.0 0.00 0.00 0.00 86 1014.5
20260509093228 35 203 3.0 5.0 0.00 0.00 0.00 85 1014.3
20260509092727 36 189 3.0 3.0 0.00 0.00 0.00 85 1014.3
20260509092224 36 195 3.0 3.0 0.00 0.00 0.00 84 1014.3
20260509091722 36 195 3.0 3.0 0.00 0.00 0.00 84 1014.3
20260509091218 36 195 3.0 3.0 0.00 0.00 0.00 84 1014.3
20260509090716 36 153 2.0 2.0 0.00 0.00 0.00 84 1014.2
20260509090213 36 246 0.0 1.0 0.00 0.00 0.00 84 1014.1
20260509085711 36 124 1.0 1.0 0.00 0.00 0.00 83 1014.0